Location: Lombard
(41.8800°N, 88.0080°W)
Time: 10:25:26
(UTC-05:00)

Tiros 1 - Pass Details

Date: 16 February 2023
Orbit: 628 x 662 km, 48.4° (Epoch: 20 March)

Event Time Altitude Azimuth Distance (km) Brightness Sun altitude
Rises 19:04:41 0° 235° (SW) 2,913 11.4 -18.9°
Reaches altitude 10° 19:07:00 10° 234° (SW) 2,004 10.4 -19.4°
Maximum altitude 19:11:36 76° 149° (SSE) 651 7.0 -20.2°
Enters shadow 19:12:41 51° 78° (ENE) 789 7.1 -20.4°
